Vertical_Velocity
-2 -6 -9 -7 -4 -5 -4 -3 -4 -2 -4 -1 -2 -2 -4 -3 -2 -2 -2 -1 3 -2 -0 0 2 4 7
-3 -2 -1 -1 -1 -1 -2 -4 -6 -7 -7 -1 1 -3 -5 -0 2 -2 -3 -3 -4 2 2 2 2 1 0
-5 -1 -3 -0 -4 0 -1 -3 1 -2 -1 -4 1 -6 -1 -2 -4 -3 -3 -3 -2 -3 -4 -4 1 1 2
-5 -5 -1 -2 2 -7 -7 -2 -11 -5 -4 -3 3 1 1 -4 -1 -4 -3 -2 -3 0 1 3 1 1 1
-5 -3 -6 -4 -3 -2 -11 -6 -7 -6 -2 -13 1 1 -3 2 -5 -5 -5 -2 -4 1 2 0 1 -0 0
-3 0 -1 1 -1 -5 -2 -9 -14 -0 -9 6 -2 2 -5 -4 -0 -6 1 2 -4 -2 1 3 2 2 -3
-1 0 -0 -3 2 -2 2 4 -2 -10 -15 -15 -2 -6 2 -10 2 -6 4 1 -4 -3 -2 -1 1 -1 -4
-1 1 2 -4 1 6 -2 5 -0 0 -5 -21 -10 -11 -6 -15 -1 -3 1 -5 -3 1 2 -0 -2 -0 1
2 2 -0 -2 0 -1 -2 -6 -17 7 3 5 -2 -21 5 -28 -20 2 -0 -4 1 -2 -2 3 2 -0 -4
-2 1 1 -5 -2 3 -3 -3 -1 -22 18 6 -4 5 -9 -19 -20 -4 -9 -8 -2 5 -1 -0 2 7 1
-1 -1 -6 -5 -6 -2 -1 3 1 -2 -5 9 -6 -1 14 -2 -25 -7 8 -11 -8 -5 -5 2 5 11 4
-2 -5 -3 -5 -3 -3 -6 5 4 -4 -16 18 -4 10 7 -11 -9 -18 3 -1 2 -7 -2 -6 1 2 4
-4 -2 -1 -2 -4 -4 -4 4 4 -1 2 3 5 -1 11 -0 -3 -17 -4 -25 -0 -1 -4 -1 -9 -1 -10
-3 -1 -3 -6 -6 0 -1 -3 -2 -9 9 5 6 13 -2 3 11 -14 2 -0 -1 1 6 -2 0 3 1
-3 -6 -9 -7 -5 -0 -3 -5 2 -10 -26 -11 10 17 9 11 -3 -1 0 -5 2 -5 11 -4 0 2 2
-3 -3 -2 -5 -7 -2 2 2 -2 -1 -10 -5 -8 -20 -15 -15 18 -1 -0 -0 -2 -5 4 8 -12 5 1
-5 -2 -1 -9 -0 -5 -0 1 -1 -2 -1 2 -3 7 -2 -3 -36 50 8 -8 -1 3 7 8 1 -5 -1
Height
1501 1498 1494 1490 1485 1480 1475 1470 1464 1460 1455 1449 1443 1437 1432 1426 1421 1417 1413 1409 1403 1399 1396 1394 1391 1389 1387
1496 1493 1489 1483 1477 1472 1467 1462 1456 1451 1445 1439 1433 1428 1421 1415 1409 1404 1400 1397 1394 1388 1385 1382 1379 1377 1376
1488 1487 1482 1477 1470 1465 1459 1453 1447 1441 1435 1429 1421 1416 1411 1404 1398 1392 1387 1383 1379 1375 1373 1370 1367 1365 1363
1486 1481 1476 1472 1465 1456 1447 1445 1435 1429 1423 1419 1411 1405 1400 1394 1386 1381 1375 1369 1366 1363 1360 1357 1354 1351 1349
1482 1477 1472 1466 1460 1453 1445 1434 1427 1421 1409 1406 1397 1392 1386 1380 1374 1368 1362 1358 1355 1351 1347 1344 1341 1338 1336
1480 1474 1469 1463 1457 1451 1441 1432 1414 1414 1402 1388 1390 1382 1377 1371 1363 1357 1351 1346 1341 1337 1332 1329 1326 1323 1321
1475 1473 1465 1461 1454 1444 1438 1429 1419 1411 1403 1377 1382 1371 1367 1360 1353 1346 1339 1333 1327 1322 1317 1313 1310 1307 1305
1472 1467 1462 1457 1452 1443 1432 1420 1411 1407 1403 1381 1374 1363 1355 1349 1341 1333 1325 1319 1313 1309 1304 1299 1295 1291 1289
1466 1462 1457 1452 1447 1436 1428 1416 1394 1392 1392 1380 1368 1354 1349 1336 1327 1319 1313 1306 1299 1294 1289 1284 1279 1275 1270
1459 1454 1450 1446 1442 1436 1426 1413 1403 1381 1384 1376 1360 1357 1334 1330 1318 1307 1298 1291 1285 1279 1275 1269 1263 1259 1253
1450 1445 1439 1434 1431 1427 1421 1412 1398 1384 1380 1373 1356 1345 1340 1316 1305 1296 1288 1278 1270 1262 1256 1251 1248 1245 1239
1442 1436 1431 1426 1421 1415 1410 1403 1395 1383 1368 1365 1353 1343 1328 1311 1295 1284 1274 1268 1261 1251 1244 1238 1233 1231 1227
1436 1432 1425 1419 1412 1404 1398 1392 1382 1373 1363 1354 1345 1333 1323 1307 1290 1274 1263 1250 1247 1240 1233 1225 1219 1215 1209
1433 1427 1419 1412 1405 1398 1386 1376 1367 1354 1352 1345 1335 1326 1312 1300 1287 1266 1255 1245 1234 1227 1218 1210 1204 1200 1195
1428 1421 1414 1408 1401 1391 1382 1371 1363 1347 1334 1328 1322 1313 1302 1291 1274 1260 1244 1234 1224 1213 1205 1196 1189 1185 1180
1425 1418 1410 1402 1394 1387 1378 1369 1356 1344 1334 1323 1309 1293 1281 1275 1273 1252 1238 1224 1211 1200 1192 1185 1174 1171 1169
1421 1414 1407 1399 1390 1379 1372 1364 1350 1339 1329 1319 1305 1293 1273 1255 1244 1247 1230 1211 1197 1187 1182 1175 1168 1162 1163